Starlink 3638

operational
NORAD ID: 51786 Int'l Des: 2022-017 Owner: SPXS Country: US Constellation: starlink
LEOCIRCULAR

About Starlink 3638

Description loading...

Live Position

Loading 3D Globe...

Upcoming Passes

Altitude History

Altitude vs Time

uPlot chart will show altitude changes over time

Two-Line Element Set

1 51786U 22017U 26036.66276403 .00002075 00000-0 14837-3 0 9990
2 51786 53.2161 132.8963 0001362 90.6649 269.4499 15.08848469217449
Epoch: Feb 5, 2026 • Age: 10 hours

Current Status

Altitude 539.6 km
Velocity 7.60 km/s
Sub-Earth Point 16.30°N, 15.57°W
Launch Date Feb 25, 2022
Age 3.9 years
Type internet

Technical Details

Classification Payload
Mass 297.00 kg
Dry Mass 275.00 kg
Total Mass 297.00 kg
Length 0.20 m
Diameter 2.80 m
Span 9.00 m
Shape Box + pan
Manufacturer SPXS
Bus Type Starlink
Phase Status In Orbit
Owner/State SPXS/US

Large Constellations

Loading constellations...